Location: Newark
(44.2003°N, 3.2583°E)
Time: 07:04:22
(UTC+00:00)

SR - Pass Details

Date: 28 October 2019
Orbit: 574 x 882 km, 66.7° (Epoch: 16 November)

Event Time Altitude Azimuth Distance (km) Brightness Sun altitude
Rises 20:04:09 0° 216° (SW) 3,068 ? -36.3°
Enters shadow 20:04:22 - 217° (SW) 2,984 ? -36.4°
Reaches altitude 10° 20:06:24 10° 219° (SW) 2,201 - -36.7°
Maximum altitude 20:11:26 72° 304° (WNW) 810 - -37.6°
Drops below altitude 10° 20:17:00 10° 29° (NNE) 2,418 - -38.5°
Sets 20:19:34 0° 31° (NNE) 3,394 - -38.9°
